Regional Weather Roundup
Issued by NWS

Home | Current Version | Previous Version | Graphics & Text | Print | Product List | Glossary On
Versions: 1 2 3 4 5 6 7 8 9 10 11 12 13 14 15 16 17 18 19 20 21 22 23 24 25 26 27 28 29 30 31 32 33 34 35 36 37 38 39 40 41 42 43 44 45 46 47 48 49 50
000
ASUS43 KIND 272309
RWRIN

WEATHER ROUNDUP FOR INDIANA
NATIONAL WEATHER SERVICE INDIANAPOLIS IN
700 PM EDT SUN MAY 27 2018

NOTE: "FAIR" INDICATES FEW OR NO CLOUDS BELOW 12,000 FEET WITH NO
SIGNIFICANT WEATHER AND/OR OBSTRUCTIONS TO VISIBILITY.

* - STATION DOES NOT REPORT WEATHER SUCH AS PRECIPITATION OR FOG.

+ - STATION NOT QUALITY CONTROLLED BY THE NATIONAL WEATHER SERVICE.
    USE DATA WITH CAUTION...ESPECIALLY DEWPOINT AND RELATIVE
    HUMIDITY OBSERVATIONS.

INZ001>003-010>013-019-020-280000-
NORTHWEST INDIANA

CITY           SKY/WX    TMP DP  RH WIND       PRES   REMARKS
GARY /AIRPORT/ MOSUNNY   88  63  42 NE8       29.86S
KNOX *+        FAIR      93  61  33 N8        29.85S HX  93
LA PORTE +     FAIR      90  58  33 N6        29.88S
MICHIGAN CITY+ FAIR      88  59  37 N5        29.88R
MONTICELLO +   FAIR      91  58  33 S3        29.85S
RENSSELAER +   PTSUNNY   95  28   9 SE12      29.86R

$$

LMZ046-743>745-280000-
SOUTHERN LAKE MICHIGAN

STATION/POSITION TIME  TEMP    WIND        PRES    WAVE
                       AIR SEA DIR/SP/G            HT
                 (UTC) (F)     (DEG/KT/KT) (MB)    (FT)
BURNS HARBOR     2240   74      80/ 10/ 12 1011.5S
MICHIGAN CITY    2240   80      50/ 11/ 11   N/A
5NW MICH CITY    2300   72 69  100/  6/  6   N/A     1

$$

INZ004-005-014>016-021>024-280000-
NORTH CENTRAL INDIANA

CITY           SKY/WX    TMP DP  RH WIND       PRES   REMARKS
GOSHEN         FAIR      92  59  33 N8        29.87S HX  91
LOGANSPORT +   FAIR      91  54  27 CALM      29.88R
PERU/GRISSOM   FAIR      92  57  30 NE3       29.87S HX  90
ROCHESTER +    FAIR      95  52  23 N5        29.87S HX  92
SOUTH BEND     FAIR      90  60  36 NW7       29.89R
WARSAW +       FAIR      88  63  42 E5        29.88R

$$

INZ006>009-017-018-025>027-280000-
NORTHEAST INDIANA

CITY           SKY/WX    TMP DP  RH WIND       PRES   REMARKS
ANGOLA *+      FAIR      88  63  42 CALM      29.88S
AUBURN +       FAIR      90  64  43 CALM      29.89R HX  91
FORT WAYNE     FAIR      92  60  34 CALM      29.88R HX  91
HUNTINGTON +   FAIR      91  55  29 CALM      29.87S
KENDALLVILLE + FAIR      89  50  26 CALM      29.90R

$$

INZ028-029-035-036-043>045-051>053-280000-
WEST CENTRAL INDIANA

CITY           SKY/WX    TMP DP  RH WIND       PRES   REMARKS
CRAWFORDSVL +  FAIR      86  63  46 S7        29.88R
GREENCASTLE +  FAIR      84  66  54 CALM      29.89S
LAFAYETTE      FAIR      92  59  33 CALM      29.85S HX  91
TERRE HAUTE    FAIR      88  65  46 S5        29.87R HX  90

$$

INZ030>032-037>040-046>048-054>057-064-065-280000-
CENTRAL INDIANA

CITY           SKY/WX    TMP DP  RH WIND       PRES   REMARKS
ANDERSON       FAIR      91  55  29 CALM      29.89S
COLUMBUS       MOSUNNY  N/A N/A N/A W6        29.89R
FISHERS *+     FAIR     N/A N/A N/A SE3       29.88S
FRANKFORT +    FAIR     N/A N/A N/A CALM      29.89S
GREENWOOD *+   FAIR      87  65  49 SW8       29.89R
INDIANAPOLIS   PTSUNNY   89  62  40 SW3       29.88S
-EAGLE CREEK   FAIR      90  64  42 CALM      29.87F HX  91
KOKOMO +       FAIR      95  54  25 CALM      29.88S HX  93
MARION +       FAIR      90  54  29 CALM      29.89R HAZE
MT COMFORT *+  FAIR      91  64  40 SE3       29.88F HX  93
SHELBYVILLE    FAIR      91  63  39 SW9       29.87F HX  92
ZIONSVILLE +   FAIR      89  64  43 S9        29.89S HX  90

$$

INZ033-034-041-042-049-050-058-059-280000-
EAST CENTRAL INDIANA

CITY           SKY/WX    TMP DP  RH WIND       PRES   REMARKS
MUNCIE         FAIR      94  54  25 N7        29.88S HX  92
RICHMOND +     FAIR      86  63  45 SE6       29.92S

$$

INZ060-061-067>069-081>083-085>088-280000-
SOUTHWEST INDIANA

CITY           SKY/WX    TMP DP  RH WIND       PRES   REMARKS
EVANSVILLE     FAIR      86  70  58 NW6       29.88S HX  90
HUNTINGBURG +  FAIR      81  68  65 CALM      29.90R
WASHINGTON +   FAIR      88  67  49 SE8       29.87S HX  90

$$

INZ062-063-066-070>080-084-089>092-280000-
SOUTH CENTRAL AND SOUTHEAST INDIANA

CITY           SKY/WX    TMP DP  RH WIND       PRES   REMARKS
BATESVILLE +   PTSUNNY   86  68  54 S8        29.91R
BEDFORD +      FAIR      75  70  83 CALM      29.90R
BLOOMINGTON    FAIR      87  69  54 S6        29.89F HX  91
FRENCH LICK *+ FAIR      79  59  50 CALM      29.91R
MADISON *+     FAIR      82  70  65 SW3       29.93R
NORTH VERNON + FAIR      84  70  61 S6        29.90R
SEYMOUR +      FAIR      86  68  54 S8        29.89S

$$




USA.gov is the U.S. government's official web portal to all federal, state and local government web resources and services.